Wind_Speed
55 55 56 56 57 58 59 60 60 60 60 60 61 62 62 63 63 63 63 62 62 62 62 62 63 63 63 63 63 63 63 62 62 62 62 61 61 60
56 57 57 58 59 60 60 61 61 61 61 60 62 62 63 63 64 64 64 64 64 63 64 64 65 65 65 65 65 64 64 64 64 64 64 64 63 63
58 58 58 59 59 61 61 61 61 62 62 61 62 63 64 64 65 65 66 66 67 66 66 66 66 66 66 66 66 65 65 65 65 65 65 65 65 64
58 58 58 59 59 60 60 60 61 62 63 62 61 62 63 64 65 65 65 66 67 67 67 66 66 66 66 66 66 66 66 66 66 66 66 66 66 66
56 57 58 58 58 59 60 59 60 61 62 62 61 62 63 64 64 64 64 64 64 65 65 65 65 65 65 65 66 66 66 66 67 67 67 67 68 68
55 56 57 58 58 58 59 59 59 60 60 61 61 60 62 63 64 63 62 61 61 61 62 62 62 63 64 64 65 66 66 66 66 67 67 67 68 68
55 54 55 56 56 56 56 57 57 58 57 58 59 58 59 60 62 62 61 59 58 59 59 59 60 60 61 62 63 63 64 64 65 65 66 67 67 67
54 54 54 54 54 54 54 54 55 56 56 56 57 57 56 58 59 60 60 59 58 57 58 57 59 59 60 61 61 62 62 62 62 63 63 64 65 65
52 52 52 53 53 53 53 53 53 54 54 54 54 55 55 55 56 57 57 58 57 57 57 57 57 58 59 59 59 60 60 60 60 61 62 62 62 62
50 50 51 51 51 52 52 53 53 53 53 53 52 53 54 54 55 56 56 57 56 57 58 57 57 56 56 57 57 57 58 58 58 58 58 58 59 59
49 50 50 50 51 51 51 51 51 52 52 53 53 53 53 53 54 54 55 56 55 55 57 56 55 55 55 55 55 55 55 55 55 55 55 56 57 58
48 49 50 50 50 50 49 49 50 51 51 52 52 51 51 52 53 53 54 54 53 53 54 55 54 54 53 53 54 53 53 53 53 54 54 55 55 56
47 48 49 49 49 49 49 49 49 49 50 49 50 50 50 50 51 53 53 53 52 52 53 53 52 52 52 51 51 51 51 51 52 52 53 53 53 53
46 46 47 48 48 48 48 48 48 48 48 49 49 49 49 49 49 50 50 50 50 50 50 51 50 50 49 49 49 49 49 49 49 49 50 51 51 51
45 45 45 46 46 47 48 48 48 48 48 48 48 48 48 48 47 47 48 48 47 47 47 47 47 47 47 46 46 46 47 47 46 47 48 49 50 49
45 45 44 44 45 45 46 46 46 46 46 46 46 45 45 45 44 44 44 44 44 44 45 45 45 45 44 43 43 44 44 44 45 46 46 47 47 47
45 44 44 44 44 44 45 45 45 45 45 45 44 43 42 42 42 41 41 41 42 42 42 42 43 43 43 42 41 41 42 43 43 44 45 44 44 45
44 44 44 44 44 44 44 44 45 45 45 44 43 42 41 40 40 40 39 39 39 40 40 40 40 41 41 40 39 39 40 41 42 43 43 43 42 43
42 43 43 42 42 42 43 43 43 44 44 43 42 41 40 39 39 38 38 38 37 37 38 38 39 39 39 38 37 38 39 39 40 42 43 42 41 40
42 42 41 40 40 41 41 41 41 42 41 41 41 40 39 38 37 36 36 36 35 35 35 36 37 37 37 37 37 37 38 39 39 40 40 40 39 39
39 39 39 38 38 38 39 39 38 38 38 39 38 37 36 36 35 35 35 34 34 33 33 34 35 36 36 37 37 36 37 38 39 39 39 39 38 38
37 36 36 37 37 36 37 37 36 36 36 35 35 35 34 34 34 33 33 33 33 33 32 32 33 34 34 34 34 35 35 37 38 38 37 37 36 35
35 34 34 35 35 35 34 34 34 33 33 32 32 32 33 33 32 31 32 32 32 32 32 32 33 33 33 32 33 34 35 35 36 35 35 35 35 34
Wind_Direction
275 275 273 272 271 270 269 269 268 267 265 265 265 265 264 263 262 262 262 262 262 262 262 261 261 261 261 261 260 260 259 259 259 260 259 259 259 258
275 275 274 273 272 271 271 271 270 269 268 266 265 265 264 264 263 262 262 262 261 262 262 262 262 262 261 261 261 261 260 259 259 259 258 258 258 257
275 275 275 274 273 271 271 271 270 270 269 267 266 265 265 264 263 263 263 263 262 262 262 262 262 262 261 261 261 261 260 260 259 259 258 258 257 257
275 275 274 274 273 272 271 272 271 271 270 269 267 266 265 265 264 264 263 263 263 263 262 262 262 261 261 261 261 261 260 260 260 259 258 258 257 257
277 276 275 274 273 273 272 272 272 271 271 270 268 267 266 265 264 264 263 264 263 263 262 262 262 261 261 261 261 261 261 261 260 259 259 258 257 257
278 277 276 274 274 274 273 272 272 271 271 270 270 269 267 265 265 264 263 264 264 264 263 262 262 262 262 262 262 261 261 261 260 260 259 259 258 257
278 278 277 275 275 275 275 273 273 272 271 271 270 270 268 266 265 264 264 263 263 264 263 263 263 263 263 263 262 262 262 261 261 260 260 259 258 258
278 277 277 276 276 276 276 275 274 273 272 272 271 270 269 267 266 265 265 264 263 264 264 263 264 264 264 263 262 262 262 261 261 260 260 259 259 258
279 278 277 276 275 275 275 275 274 274 274 273 272 271 271 270 268 266 266 265 265 265 264 264 264 265 264 263 263 263 262 261 261 260 260 259 259 258
280 279 278 277 276 276 276 275 274 274 274 273 273 272 272 271 269 267 266 266 265 265 265 264 264 265 265 264 264 263 263 263 261 260 260 259 258 258
281 279 279 279 277 277 277 275 273 272 272 273 274 273 273 272 271 269 268 267 266 265 266 266 265 264 264 265 264 263 263 262 261 259 260 260 259 259
281 280 280 279 279 277 277 277 275 273 274 274 274 273 273 273 272 271 269 268 267 266 266 266 266 265 265 263 263 262 262 262 262 260 259 260 259 259
282 282 281 280 278 277 277 277 276 276 275 274 274 273 273 274 272 271 270 270 268 267 266 266 265 265 266 263 261 262 262 262 262 260 259 258 258 258
284 283 282 281 279 277 277 277 277 276 275 275 275 275 274 274 273 271 270 269 268 268 266 266 264 264 264 263 261 260 260 260 260 260 259 258 258 259
285 284 283 282 280 278 277 277 276 276 276 276 276 276 276 274 273 271 269 268 267 266 266 266 264 264 264 263 260 259 259 259 259 259 259 259 258 259
285 285 284 283 282 280 278 277 276 276 276 276 276 276 275 275 274 272 270 268 267 266 266 265 264 264 264 263 261 259 259 259 259 260 260 258 258 258
285 284 283 283 282 282 280 278 277 277 277 277 277 276 275 275 273 273 271 269 267 266 265 265 264 264 264 263 262 260 259 259 259 258 259 259 259 259
286 285 284 283 282 281 280 279 278 277 277 277 276 275 275 274 273 272 271 270 268 266 265 264 263 263 263 264 263 261 260 260 259 260 260 260 260 259
287 287 286 284 283 282 281 280 278 277 277 277 276 275 274 272 271 271 271 270 269 267 265 263 262 262 262 263 262 262 262 261 260 260 261 261 260 260
289 288 287 286 285 284 283 281 280 278 277 276 275 274 272 271 270 270 270 269 268 266 265 264 264 264 263 263 261 260 262 262 261 261 261 261 261 260
291 289 288 287 287 286 285 283 282 280 277 275 274 272 271 270 270 271 270 269 267 266 265 265 266 266 265 263 261 258 259 261 262 262 261 261 259 257
292 291 290 289 289 289 287 285 283 281 279 276 274 272 270 269 270 270 270 269 268 267 265 265 267 267 266 264 261 258 257 259 262 262 261 259 257 255
294 293 292 292 291 291 289 287 284 281 278 276 275 272 270 269 268 268 269 269 269 268 267 267 267 267 266 265 263 261 259 258 259 259 257 255 254 254
Height
5612 5611 5610 5609 5609 5608 5608 5608 5609 5610 5613 5614 5613 5613 5612 5613 5614 5616 5617 5619 5620 5622 5624 5626 5628 5631 5633 5635 5637 5639 5642 5644 5647 5650 5653 5655 5659 5662
5597 5595 5594 5593 5592 5592 5591 5591 5590 5591 5593 5596 5595 5594 5594 5594 5595 5597 5598 5600 5602 5603 5605 5607 5609 5611 5613 5615 5618 5620 5622 5625 5628 5631 5633 5636 5640 5643
5580 5579 5578 5576 5575 5574 5573 5573 5572 5572 5573 5576 5576 5575 5575 5575 5575 5577 5578 5580 5582 5583 5585 5587 5589 5591 5593 5595 5598 5600 5602 5605 5608 5611 5613 5617 5620 5624
5564 5562 5561 5559 5558 5557 5556 5555 5554 5553 5554 5556 5556 5556 5555 5555 5556 5557 5558 5560 5562 5564 5565 5567 5569 5571 5573 5575 5577 5580 5582 5585 5588 5590 5594 5598 5601 5603
5547 5545 5543 5542 5541 5539 5538 5537 5536 5535 5534 5535 5537 5536 5536 5535 5536 5537 5539 5540 5542 5543 5545 5546 5549 5550 5552 5554 5556 5559 5562 5565 5568 5570 5572 5575 5579 5583
5531 5528 5526 5525 5523 5522 5520 5519 5518 5517 5516 5516 5517 5517 5517 5516 5516 5518 5520 5521 5523 5524 5525 5527 5529 5530 5533 5535 5538 5539 5541 5543 5545 5548 5551 5554 5557 5561
5515 5512 5510 5508 5506 5504 5503 5502 5500 5499 5499 5498 5499 5499 5499 5498 5498 5499 5502 5504 5505 5505 5507 5509 5511 5513 5513 5515 5517 5518 5520 5522 5525 5527 5530 5533 5536 5539
5499 5497 5494 5492 5490 5488 5487 5485 5484 5483 5482 5481 5482 5482 5481 5481 5481 5481 5482 5485 5489 5491 5489 5492 5492 5494 5495 5497 5498 5499 5501 5502 5504 5506 5509 5512 5515 5518
5483 5481 5479 5476 5474 5473 5471 5470 5468 5466 5465 5465 5465 5465 5465 5465 5465 5466 5465 5467 5470 5472 5472 5475 5475 5476 5478 5479 5480 5481 5482 5483 5485 5487 5489 5492 5495 5498
5467 5465 5463 5461 5458 5457 5456 5454 5453 5451 5450 5450 5450 5449 5448 5447 5447 5448 5448 5450 5453 5454 5453 5456 5458 5459 5461 5461 5462 5463 5464 5465 5467 5468 5471 5473 5476 5479
5453 5450 5448 5446 5444 5442 5441 5439 5438 5437 5435 5434 5433 5433 5432 5431 5430 5431 5432 5433 5436 5437 5436 5437 5440 5442 5444 5444 5445 5445 5447 5448 5450 5452 5453 5456 5458 5461
5440 5437 5434 5432 5429 5427 5425 5424 5423 5422 5421 5420 5419 5418 5417 5416 5415 5414 5415 5416 5418 5421 5420 5420 5422 5423 5426 5429 5429 5429 5430 5431 5433 5435 5437 5439 5440 5442
5426 5423 5420 5417 5415 5412 5411 5410 5408 5407 5406 5405 5404 5403 5402 5401 5400 5399 5399 5400 5401 5403 5404 5404 5405 5406 5407 5412 5414 5414 5414 5415 5416 5418 5420 5422 5424 5425
5411 5409 5406 5403 5401 5399 5397 5395 5394 5392 5391 5391 5390 5389 5388 5387 5386 5385 5385 5385 5385 5386 5387 5387 5389 5390 5391 5394 5397 5399 5399 5399 5400 5402 5404 5406 5408 5410
5397 5395 5392 5389 5387 5385 5383 5381 5380 5378 5377 5376 5376 5374 5373 5372 5371 5371 5371 5370 5371 5371 5372 5372 5373 5374 5375 5378 5380 5382 5384 5385 5385 5387 5389 5391 5394 5396
5384 5381 5378 5376 5373 5371 5370 5368 5366 5364 5363 5362 5361 5360 5359 5358 5357 5356 5357 5357 5358 5359 5358 5358 5359 5360 5361 5363 5365 5367 5368 5370 5372 5373 5375 5377 5379 5381
5370 5368 5365 5363 5360 5358 5356 5354 5352 5351 5350 5349 5347 5346 5345 5345 5344 5343 5343 5343 5344 5345 5346 5346 5345 5346 5347 5349 5351 5353 5355 5356 5358 5359 5361 5364 5366 5368
5357 5354 5352 5349 5347 5345 5343 5341 5339 5337 5336 5334 5334 5333 5332 5332 5331 5331 5330 5331 5331 5332 5333 5333 5333 5334 5335 5337 5339 5340 5341 5343 5345 5346 5348 5350 5353 5355
5344 5341 5338 5335 5333 5331 5329 5327 5326 5324 5322 5321 5320 5320 5319 5319 5319 5319 5319 5319 5319 5320 5320 5320 5321 5321 5324 5326 5328 5328 5329 5330 5332 5334 5336 5338 5340 5343
5331 5328 5325 5322 5320 5318 5316 5314 5312 5311 5309 5308 5307 5307 5307 5307 5307 5307 5307 5307 5308 5308 5308 5309 5309 5310 5312 5314 5316 5317 5316 5318 5320 5322 5324 5326 5328 5330
5319 5315 5313 5310 5308 5306 5304 5302 5300 5298 5297 5296 5295 5295 5295 5295 5296 5296 5296 5296 5296 5297 5298 5298 5299 5299 5299 5301 5303 5306 5306 5306 5307 5309 5311 5314 5316 5318
5307 5304 5302 5299 5297 5294 5292 5290 5288 5287 5286 5285 5284 5284 5284 5285 5285 5285 5285 5285 5286 5286 5287 5288 5287 5288 5288 5289 5292 5294 5296 5296 5296 5297 5299 5301 5303 5306
5297 5294 5291 5288 5285 5283 5281 5279 5277 5276 5275 5274 5274 5273 5274 5274 5274 5275 5275 5275 5275 5276 5276 5277 5277 5277 5278 5279 5280 5282 5284 5285 5286 5287 5289 5290 5292 5295